Regional Weather Roundup
Issued by NWS

Home | Current Version | Previous Version | Text Only | Print | Product List | Glossary Off
Versions: 1 2 3 4 5 6 7 8 9 10 11 12 13 14 15 16 17 18 19 20 21 22 23 24 25 26 27 28 29 30 31 32 33 34 35 36 37 38 39 40 41 42 43 44 45 46 47 48 49 50

578
ASUS43 KMPX 220901
RWRMN
WEATHER ROUNDUP FOR MINNESOTA
NATIONAL WEATHER SERVICE TWIN CITIES/CHANHASSEN MN
400 AM CDT SUN OCT 22 2017


NOTE: "FAIR" INDICATES FEW OR NO CLOUDS BELOW 12,000 FEET WITH NO
SIGNIFICANT WEATHER AND/OR OBSTRUCTIONS TO VISIBILITY. N/A MEANS
CURRENT SKY AND/OR WEATHER CONDITIONS ARE NOT AVAILABLE.

MNZ060>063-068>070-221000-
   Twin Cities Metro

CITY           SKY/WX    TMP DP  RH WIND       PRES   REMARKS
TWIN CITIES    CLOUDY    50  44  80 W8        29.89R
ST PAUL        CLOUDY    49  44  83 W8        29.89R
CRYSTAL        CLOUDY    49  39  68 W9        29.88R
BLAINE         PTCLDY    50  45  81 W7        29.88S
LAKEVILLE      CLOUDY    46  43  87 W6        29.89S
EDEN PRAIRIE   CLOUDY    48  42  80 W8        29.89R
SOUTH ST PAUL  PTCLDY    50  42  75 W9        29.88F
LAKE ELMO      FAIR      50  43  76 SW6       29.88F
$$
MNZ001>005-007-008-013>017-022>024-027-028-221000-
   Northwest Minnesota

CITY           SKY/WX    TMP DP  RH WIND       PRES   REMARKS
BEMIDJI        CLOUDY    47  37  68 SW15G21   29.73S
HALLOCK        CLOUDY    48  39  71 W17       29.65R
ROSEAU         LGT RAIN  45  39  81 SW13G18   29.63S
WARROAD        CLOUDY    45  41  87 SW12G18   29.63R
CROOKSTON      PTCLDY    46  37  71 SW15      29.74R
FOSSTON        CLOUDY    45  36  70 W13G23    29.75R
DETROIT LAKES  MOCLDY    46  37  71 W10       29.81S
MOORHEAD       CLEAR     45  36  70 SW8       29.81S
PARK RAPIDS    LGT RAIN  46  39  76 W14G25    29.78R
MAHNOMEN       CLOUDY    45  38  77 SW13      29.77S
$$
MNZ006-009>011-018-025>026-221000-
   North Central Minnesota

CITY           SKY/WX    TMP DP  RH WIND       PRES   REMARKS
BAUDETTE       CLOUDY    49  40  71 SW13G22   29.63S
FLAG ISLAND    CLOUDY    46  45  93 SW13      29.58S
INTL FALLS     CLOUDY    45  43  93 SW8       29.65S
WASKISH        CLOUDY    48  41  76 SW20G28   29.67S
BIG FORK       CLOUDY    46  43  87 SW8       29.70S
LONGVILLE      CLOUDY    46  41  81 SW7       29.76S
GRAND RAPIDS   MOCLDY    46  42  86 SW9       29.76S
CRANE LAKE     MOCLDY    46  45  93 S3        29.70F
ORR            CLOUDY    45  43  93 SW5       29.67S
COOK           CLOUDY    46  45  93 SW8       29.71S
WALKER         CLOUDY    46  38  73 SW14      29.75S
$$
MNZ012-019>021-037-221000-
   Northeast Minnesota

CITY           SKY/WX    TMP DP  RH WIND       PRES   REMARKS
DULUTH         CLOUDY    46  45  96 W13       29.76R
ELY            CLOUDY    48  46  93 SW10      29.71R
HIBBING        PTCLDY    44  43  96 SW3       29.73S
EVELETH        CLOUDY    46  45  98 SW10      29.74S
DULUTH HARBOR  CLOUDY    52  46  82 SW13      29.78R
TWO HARBORS    PTCLDY    52  46  82 SW9       29.74R
SILVER BAY     CLOUDY    52  50  93 SW3       29.70F
GRAND MARAIS     N/A     51  51 100 SW10      29.67R
G MARAIS ARPRT MOCLDY    55  52  88 S7        29.68R
$$
MNZ029>031-032-039>041-046>048-054>057-064-221000-
   West Central Minnesota

CITY           SKY/WX    TMP DP  RH WIND       PRES   REMARKS
FERGUS FALLS   CLEAR     41  37  87 W7        29.84F
WHEATON        CLEAR     45  36  70 SW7       29.89S
MORRIS         CLOUDY    41  37  87 W6        29.87S
ALEXANDRIA     MOCLDY    46  39  76 W9        29.86F
ELBOW LAKE     FAIR      41  37  88 SW7       29.86S
WADENA         PTCLDY    45  37  76 W8        29.81S
GLENWOOD       PTCLDY    45  41  87 SW9       29.87S
APPLETON       PTCLDY    43  37  81 SW8       29.89S
BENSON         CLOUDY    43  37  81 W8        29.90S
ORTONVILLE     CLEAR     45  37  76 W6        29.88F
MADISON        PTCLDY    45  39  81 SW5       29.91S
WILLMAR        FAIR      45  41  87 W6        29.90S
$$
MNZ033>034-036-042>043-049>051-058-059-221000-
   Central Minnesota

CITY           SKY/WX    TMP DP  RH WIND       PRES   REMARKS
ST CLOUD       CLOUDY    46  42  86 W8        29.86S
SAUK CENTRE    FAIR      45  40  83 W9        29.85S
PAYNESVILLE    PTCLDY    44  41  90 W6        29.88S
AITKIN         CLOUDY    45  41  87 SW7       29.78S
PINE RIVER     PTCLDY    45  39  81 SW7       29.82S
BRAINERD       CLOUDY   N/A N/A N/A SW13      29.81S
STAPLES        CLOUDY    45  37  76 W14       29.81R
LONG PRAIRIE   FAIR      45  37  76 SW9       29.84S
LITTLE FALLS   CLOUDY    43  36  75 W7        29.84S
LITCHFIELD     CLOUDY    46  43  87 SW5       29.89S
BUFFALO        CLOUDY    46  41  81 SW5       29.89S
MAPLE LAKE     PTCLDY    47  43  87 SW5       29.89S
HUTCHINSON     CLEAR     46  42  86 SW3       29.91R
$$
MNZ037-044-045-052-053-221000-
   East Central Minnesota

CITY           SKY/WX    TMP DP  RH WIND       PRES   REMARKS
PRINCETON      PTCLDY    46  43  87 SW5       29.87R
MORA           PTCLDY    45  41  87 SW6       29.85S
CAMBRIDGE      PTCLDY    48  45  87 SW5       29.86R
RUSH CITY      PTCLDY    47  42  84 SW7       29.84S
MOOSE LAKE     CLOUDY    45  41  87 CALM      29.79R
HINCKLEY       FAIR      45  43  93 SW7       29.82S
CLOQUET        CLOUDY    46  43  87 SW8       29.78R
MCGREGOR       CLOUDY    45  43  93 SW7       29.79S
$$
MNZ071>073-080-081-089-090-097-098-221000-
   Southwest Minnesota

CITY           SKY/WX    TMP DP  RH WIND       PRES   REMARKS
MONTEVIDEO     MOCLDY    45  39  81 CALM      29.91R
GRANITE FALLS  PTCLDY    44  40  87 SW7       29.93S
CANBY          PTCLDY    46  38  73 SW8       29.93R
MARSHALL       PTCLDY    45  38  76 W9        29.93R
REDWOOD FALLS  PTCLDY    46  38  73 SW9       29.92R
OLIVIA         PTCLDY    43  37  81 W6        29.90R
PIPESTONE      CLOUDY    37  34  87 W3        29.96R
WORTHINGTON    CLOUDY    43  38  82 W7        29.97R
JACKSON        PTCLDY    43  37  81 W6        29.97R
TRACY          CLOUDY    46  40  80 SW8       29.94R
SLAYTON        PTCLDY    44  38  79 W9        29.97R
$$
MNZ065>067-074>077-082>085-091>093-221000-
   South Central Minnesota

CITY           SKY/WX    TMP DP  RH WIND       PRES   REMARKS
NEW ULM        CLOUDY    45  39  81 CALM      29.93R
ST JAMES       CLOUDY    46  39  76 W7        29.95R
FAIRMONT       CLOUDY    47  40  76 W8        29.95R
GLENCOE        CLOUDY    47  42  82 SW5       29.90S
FARIBAULT      PTCLDY    48  43  81 W6        29.91S
OWATONNA       MOCLDY    48  43  81 W8        29.92S
WASECA         CLOUDY    45  41  87 W6        29.94R
$$
MNZ078>079-086>088-094>096-221000-
   Southeast Minnesota

CITY           SKY/WX    TMP DP  RH WIND       PRES   REMARKS
ROCHESTER      CLOUDY    49  45  86 W7        29.91F
RED WING       CLOUDY    52  43  71 W7        29.88F
STANTON        CLOUDY    50  43  78 W5        29.89S
DODGE CENTER   CLOUDY    48  43  81 W6        29.91S
WINONA         LGT RAIN  54  46  76 NW5       29.89F
AUSTIN         CLOUDY    48  43  81 W6        29.92S
PRESTON        CLOUDY    48  44  86 NW7       29.91F
$$
ABBREVIATIONS USED IN REMARKS
   TC - TEMPERATURES IN CELSIUS
  WCI - WIND CHILL INDEX
   HX - HEAT INDEX
  VSB - VISIBILITY
$$




USA.gov is the U.S. government's official web portal to all federal, state and local government web resources and services.